Weather in Krasnoturansk

Russia / Krasnoyarsk Krai     54°19′01″N   91°34′03″E
temp.,
°C
wind,
m/s
gust,
m/s
humid.,
%
clouds,
%
prec.,
mm/h
press.,
hPa
HPBL,
m
18 october, mon
mon1801:00+3sse12655 0.0 102682
04:00+3se226775 0.0 1027102
07:00+2se227083 0.0 1027121
10:00+4se226393 0.0 1027255
13:00+7sse23543 0.0 1027484
16:00+8sse22520 0.0 1026474
19:00+6ese11612 0.0 102754
22:00+5ese116640 0.0 102848
19 october, tue
tue1901:00+4ene11695 0.0 102855
04:00+3e117232 0.0 102962
07:00+3ese11735 0.0 103069
10:00+4se116611 0.0 1030209
13:00+7sse225631 0.0 1029476
16:00+8se235420 0.0 1028521
19:00+6ese2264100 0.0 102887
22:00+5ese126783 0.0 102861
20 october, wed
wed2001:00+4e127162 0.0 102759
04:00+3ese227411 0.0 102763
07:00+3ese12755 0.0 102774
10:00+5se22655 0.0 1027224
13:00+8sse35530 0.0 1024522
16:00+9sse35535 0.0 1023473
19:00+6se23616 0.0 102368
22:00+5se226415 0.0 102374
21 october, thu
thu2101:00+5se226728 0.0 102283
04:00+4se236966 0.0 102297
07:00+3se237383 0.0 1023103
10:00+5se236329 0.0 1023230
13:00+8sse444921 0.0 1021490
16:00+9sse355248 0.0 1020268
19:00+7ese235941 0.0 102061
22:00+6se226179 0.0 102063
22 october, fri
fri2201:00+5se236345 0.0 102080
04:00+4ese236710 0.0 102092
07:00+3se2370100 0.0 102198
10:00+5se2362100 0.0 1021175
13:00+8se234946 0.0 1021388
16:00+9se34515 0.0 1020197
19:00+7ese225717 0.0 102157
22:00+6e22565 0.0 102045